Skagway, AK

2:18 AM AKST on February 23, 2017 (GMT -0900)
Skagway

Weather History for PAGY - March, 2014

Change the Weather History Date:

Wednesday, March 26, 2014

  Actual Average Record
Temperature  
Mean Temperature 34 °F -  
Max Temperature 39 °F 38 °F 50 °F (1984)
Min Temperature 30 °F 27 °F 0 °F (1967)
Degree Days  
Heating Degree Days 30    
Moisture  
Dew Point 0 °F    
Average Humidity 24    
Maximum Humidity 28    
Minimum Humidity 18    
Precipitation  
Precipitation 0.00 in - - ()
Sea Level Pressure  
Sea Level Pressure 29.88 in    
Wind  
Wind Speed 16 mph (NNE)    
Max Wind Speed 24 mph    
Max Gust Speed 32 mph    
Visibility 10 miles    
Events      
Averages and records for this station are not official NWS values.
T = Trace of Precipitation, MM = Missing Value Source: NWS Daily Summary

Daily Weather History Graph

Daily Weather History Graph

Search for Another Location

Airport or City:

Trip Planner

Search our weather history database for the weather conditions in past years. The results will help you decide how hot, cold, wet, or windy it might be!

Date:

Astronomy

Mar. 26, 2014 Rise Set
Actual Time 6:44 AM AKDT 7:30 PM AKDT
Civil Twilight 6:03 AM AKDT 8:12 PM AKDT
Nautical Twilight 5:12 AM AKDT 9:02 PM AKDT
Astronomical Twilight 4:16 AM AKDT 9:59 PM AKDT
Moon 4:58 AM AKDT (3/26) 2:22 PM AKDT (3/26)
Length of Visible Light 14h 08m
Length of Day
12h 46m
Waning Crescent, 20% of the Moon is Illuminated
Mar 26
Waning Crescent
Mar 30
New
Apr 7
First Quarter
Apr 14
Full
Apr 21
Last Quarter

Hourly Weather History & Observations

Time (AKDT) Temp. Windchill Dew Point Humidity Pressure Visibility Wind Dir Wind Speed Gust Speed Precip Events Conditions
12:53 AM 35.1 °F 25.5 °F -0.0 °F 23% 29.86 in 10.0 mi NNE 15.0 mph - N/A   Clear
1:53 AM 34.0 °F 23.8 °F -0.0 °F 24% 29.86 in 10.0 mi NNE 16.1 mph - N/A   Clear
2:53 AM 33.1 °F 22.2 °F -0.0 °F 24% 29.87 in 10.0 mi NE 17.3 mph - N/A   Clear
3:53 AM 33.1 °F 23.0 °F -0.9 °F 23% 29.87 in 10.0 mi NE 15.0 mph 25.3 mph N/A   Clear
4:53 AM 32.0 °F 21.2 °F -0.0 °F 26% 29.86 in 10.0 mi NE 16.1 mph - N/A   Clear
5:53 AM 30.9 °F 20.2 °F -0.0 °F 27% 29.88 in 10.0 mi NE 15.0 mph - N/A   Clear
6:53 AM 30.9 °F 19.1 °F -0.9 °F 26% 29.89 in 10.0 mi NNE 18.4 mph 25.3 mph N/A   Clear
7:53 AM 30.9 °F 19.1 °F -0.0 °F 27% 29.90 in 10.0 mi NNE 18.4 mph 24.2 mph N/A   Clear
8:53 AM 30.9 °F 19.4 °F -0.0 °F 27% 29.89 in 10.0 mi NNE 17.3 mph 27.6 mph N/A   Clear
9:53 AM 34.0 °F 22.7 °F -0.0 °F 24% 29.91 in 10.0 mi NNE 19.6 mph 26.5 mph N/A   Clear
10:53 AM 35.1 °F 23.3 °F -0.0 °F 23% 29.91 in 10.0 mi NE 23.0 mph 32.2 mph N/A   Clear
11:53 AM 36.0 °F 24.2 °F 1.0 °F 23% 29.90 in 10.0 mi NE 24.2 mph 32.2 mph N/A   Clear
12:53 PM 37.0 °F 25.9 °F -0.0 °F 21% 29.89 in 10.0 mi NE 23.0 mph 31.1 mph N/A   Clear
1:53 PM 39.0 °F 30.3 °F -0.9 °F 19% 29.89 in 10.0 mi NNE 16.1 mph 25.3 mph N/A   Clear
2:53 PM 39.0 °F 29.9 °F -0.0 °F 19% 29.88 in 10.0 mi NE 17.3 mph 26.5 mph N/A   Clear
3:53 PM 39.9 °F 31.1 °F -0.0 °F 19% 29.88 in 10.0 mi NNE 17.3 mph 26.5 mph N/A   Clear
4:53 PM 39.9 °F 31.8 °F -0.9 °F 18% 29.87 in 10.0 mi NNE 15.0 mph 23.0 mph N/A   Clear
5:53 PM 37.9 °F 30.5 °F -0.0 °F 20% 29.87 in 10.0 mi NNE 11.5 mph - N/A   Clear
6:53 PM 37.0 °F 30.4 °F -0.9 °F 20% 29.86 in 10.0 mi North 9.2 mph - N/A   Clear
7:53 PM 35.1 °F 29.3 °F 1.9 °F 25% 29.87 in 10.0 mi NNE 6.9 mph - N/A   Clear
8:53 PM 33.1 °F 26.1 °F 1.9 °F 27% 29.88 in 10.0 mi NNE 8.1 mph - N/A   Clear
9:53 PM 33.1 °F 23.9 °F 1.0 °F 26% 29.87 in 10.0 mi NNE 12.7 mph - N/A   Clear
10:53 PM 32.0 °F 24.2 °F 1.9 °F 28% 29.88 in 10.0 mi NNE 9.2 mph - N/A   Clear
11:53 PM 32.0 °F 21.2 °F -0.0 °F 26% 29.89 in 10.0 mi NNE 16.1 mph 25.3 mph N/A   Clear